Weather History for Taylorville, IL

Change the Weather History Date:

Tuesday, July 16, 2013

  Actual Average (KSPI) Record (KSPI)
Temperature  
Mean Temperature 82 °F 76 °F  
Max Temperature 93 °F 86 °F 104 °F (1914)
Min Temperature 71 °F 66 °F 52 °F (2014)
Degree Days  
Heating Degree Days 0 0  
Month to date heating degree days 0  
Since 1 June heating degree days 15  
Since 1 July heating degree days 0  
Cooling Degree Days 17 11  
Month to date cooling degree days 176  
Year to date cooling degree days 520  
Since 1 June cooling degree days 416  
Growing Degree Days 32 (Base 50)    
Moisture  
Dew Point 70 °F    
Average Humidity 74    
Maximum Humidity 100    
Minimum Humidity 43    
Precipitation  
Precipitation 0.00 in 0.13 in 1.35 in (1883)
Month to date precipitation 2.09  
Year to date precipitation 20.56  
Snow  
Snow 0.00 in 0.00 in 0.00 in ()
Month to date snowfall 0.0  
Since 1 June snowfall 0.0  
Since 1 July snowfall 0.0  
Snow Depth -    
Sea Level Pressure  
Sea Level Pressure 30.28 in    
Wind  
Wind Speed 4 mph (SSE)    
Max Wind Speed 9 mph    
Max Gust Speed -    
Visibility 10 miles    
Events      
T = Trace of Precipitation, MM = Missing Value Source: NWS Daily Summary

Daily Weather History Graph

Daily Weather History Graph

Search for Another Location

Airport:

Trip Planner

Search our weather history database for the weather conditions in past years. The results will help you decide how hot, cold, wet, or windy it might be!

Date:

Astronomy

Jul. 16, 2013 Rise Set
Actual Time 5:43 AM CDT 8:23 PM CDT
Civil Twilight 5:11 AM CDT 8:54 PM CDT
Nautical Twilight 4:32 AM CDT 9:33 PM CDT
Astronomical Twilight 3:48 AM CDT 10:17 PM CDT
Moon 2:05 PM CDT (7/16) 12:12 AM CDT (7/16)
Length of Visible Light 15h 42m
Length of Day
14h 39m
First Quarter, 56% of the Moon is Illuminated
Jul 16
First Quarter
Jul 22
Full
Jul 29
Last Quarter
Aug 6
New
Aug 14
First Quarter

Hourly Weather History & Observations

Time (CDT) Temp. Heat Index Dew Point Humidity Pressure Visibility Wind Dir Wind Speed Gust Speed Precip Events Conditions
12:15 AM 75.2 °F - 71.6 °F 89% 30.26 in 10.0 mi ESE 4.6 mph - N/A   Clear
12:35 AM 75.2 °F - 71.6 °F 89% 30.26 in 10.0 mi SSE 3.5 mph - N/A   Clear
12:55 AM 73.4 °F - 71.6 °F 94% 30.26 in 10.0 mi SSE 4.6 mph - N/A   Clear
1:15 AM 73.4 °F - 71.6 °F 94% 30.26 in 10.0 mi SSE 4.6 mph - N/A   Clear
1:35 AM 73.4 °F - 71.6 °F 94% 30.25 in 10.0 mi SSE 5.8 mph - N/A   Clear
1:55 AM 73.4 °F - 71.6 °F 94% 30.24 in 10.0 mi SSE 4.6 mph - N/A   Clear
2:15 AM 71.6 °F - 71.6 °F 100% 30.25 in 10.0 mi SSE 4.6 mph - N/A   Clear
2:35 AM 71.6 °F - 71.6 °F 100% 30.24 in 10.0 mi Calm Calm - N/A   Clear
2:55 AM 71.6 °F - 71.6 °F 100% 30.24 in 7.0 mi SE 3.5 mph - N/A   Clear
3:15 AM 71.6 °F - 71.6 °F 100% 30.25 in 7.0 mi SE 4.6 mph - N/A   Clear
3:35 AM 71.6 °F - 71.6 °F 100% 30.25 in 7.0 mi SE 3.5 mph - N/A   Clear
3:55 AM 71.6 °F - 69.8 °F 94% 30.26 in 7.0 mi Calm Calm - N/A   Clear
4:15 AM 71.6 °F - 69.8 °F 94% 30.26 in 7.0 mi ESE 3.5 mph - N/A   Clear
4:35 AM 71.6 °F - 69.8 °F 94% 30.26 in 7.0 mi SE 3.5 mph - N/A   Clear
4:55 AM 71.6 °F - 69.8 °F 94% 30.27 in 7.0 mi SE 4.6 mph - N/A   Clear
5:15 AM 71.6 °F - 69.8 °F 94% 30.27 in 10.0 mi SE 4.6 mph - N/A   Clear
5:35 AM 71.6 °F - 69.8 °F 94% 30.28 in 10.0 mi SE 4.6 mph - N/A   Clear
5:55 AM 71.6 °F - 69.8 °F 94% 30.29 in 7.0 mi SE 4.6 mph - N/A   Clear
6:15 AM 71.6 °F - 69.8 °F 94% 30.29 in 7.0 mi SE 4.6 mph - N/A   Clear
6:35 AM 71.6 °F - 71.6 °F 100% 30.29 in 7.0 mi SSE 4.6 mph - N/A   Clear
6:55 AM 73.4 °F - 71.6 °F 94% 30.30 in 10.0 mi SSE 4.6 mph - N/A   Clear
7:15 AM 73.4 °F - 71.6 °F 94% 30.31 in 10.0 mi SSE 5.8 mph - N/A   Clear
7:35 AM 75.2 °F - 71.6 °F 89% 30.31 in 10.0 mi SSE 4.6 mph - N/A   Clear
7:55 AM 78.8 °F - 71.6 °F 78% 30.32 in 10.0 mi South 6.9 mph - N/A   Clear
8:15 AM 78.8 °F - 71.6 °F 78% 30.32 in 10.0 mi South 6.9 mph - N/A   Clear
8:35 AM 80.6 °F 83.9 °F 69.8 °F 70% 30.32 in 10.0 mi South 9.2 mph - N/A   Clear
8:55 AM 80.6 °F 84.6 °F 71.6 °F 74% 30.32 in 10.0 mi South 5.8 mph - N/A   Clear
9:15 AM 82.4 °F 86.3 °F 69.8 °F 66% 30.32 in 10.0 mi South 8.1 mph - N/A   Clear
9:35 AM 84.2 °F 88.4 °F 69.8 °F 62% 30.32 in 10.0 mi SSW 6.9 mph - N/A   Clear
9:55 AM 84.2 °F 88.4 °F 69.8 °F 62% 30.32 in 10.0 mi South 6.9 mph - N/A   Clear
10:15 AM 86.0 °F 90.4 °F 69.8 °F 58% 30.32 in 10.0 mi SSW 8.1 mph - N/A   Clear
10:55 AM 87.8 °F 92.6 °F 69.8 °F 55% 30.32 in 10.0 mi SW 6.9 mph - N/A   Clear
11:15 AM 87.8 °F 92.6 °F 69.8 °F 55% 30.31 in 10.0 mi SSE 8.1 mph - N/A   Clear
11:35 AM 87.8 °F 92.6 °F 69.8 °F 55% 30.31 in 10.0 mi SSW 8.1 mph - N/A   Clear
11:55 AM 87.8 °F 92.6 °F 69.8 °F 55% 30.31 in 10.0 mi SSW 6.9 mph - N/A   Clear
12:15 PM 87.8 °F 92.6 °F 69.8 °F 55% 30.31 in 10.0 mi South 4.6 mph - N/A   Clear
12:35 PM 89.6 °F 93.4 °F 68.0 °F 49% 30.31 in 10.0 mi South 3.5 mph - N/A   Scattered Clouds
12:55 PM 89.6 °F 92.2 °F 66.2 °F 46% 30.31 in 10.0 mi SSE 3.5 mph - N/A   Clear
1:15 PM 89.6 °F 93.4 °F 68.0 °F 49% 30.30 in 10.0 mi SW 4.6 mph - N/A   Scattered Clouds
1:35 PM 91.4 °F 95.4 °F 68.0 °F 46% 30.30 in 10.0 mi South 3.5 mph - N/A   Clear
1:55 PM 91.4 °F 95.4 °F 68.0 °F 46% 30.29 in 10.0 mi SW 3.5 mph - N/A   Clear
2:15 PM 91.4 °F 96.8 °F 69.8 °F 49% 30.29 in 10.0 mi South 4.6 mph - N/A   Clear
2:35 PM 91.4 °F 95.4 °F 68.0 °F 46% 30.29 in 10.0 mi South 5.8 mph - N/A   Clear
3:55 PM 93.2 °F 97.7 °F 68.0 °F 44% 30.27 in 10.0 mi South 3.5 mph - N/A   Clear
4:15 PM 91.4 °F 94.0 °F 66.2 °F 43% 30.27 in 10.0 mi SSW 5.8 mph - N/A   Clear
4:35 PM 91.4 °F 95.4 °F 68.0 °F 46% 30.26 in 10.0 mi South 3.5 mph - N/A   Clear
4:55 PM 91.4 °F 94.0 °F 66.2 °F 43% 30.26 in 10.0 mi SSW 3.5 mph - N/A   Clear
5:15 PM 91.4 °F 94.0 °F 66.2 °F 43% 30.26 in 10.0 mi Calm Calm - N/A   Clear
5:35 PM 91.4 °F 94.0 °F 66.2 °F 43% 30.26 in 10.0 mi SSW 3.5 mph - N/A   Clear
5:55 PM 89.6 °F 92.2 °F 66.2 °F 46% 30.26 in 10.0 mi South 4.6 mph - N/A   Clear
6:15 PM 89.6 °F 92.2 °F 66.2 °F 46% 30.26 in 10.0 mi South 5.8 mph - N/A   Clear
6:35 PM 89.6 °F 93.4 °F 68.0 °F 49% 30.26 in 10.0 mi Calm Calm - N/A   Clear
6:55 PM 87.8 °F 91.4 °F 68.0 °F 52% 30.26 in 10.0 mi South 3.5 mph - N/A   Clear
7:15 PM 87.8 °F 91.4 °F 68.0 °F 52% 30.26 in 10.0 mi SSE 3.5 mph - N/A   Clear
7:35 PM 84.2 °F 88.4 °F 69.8 °F 62% 30.26 in 10.0 mi Calm Calm - N/A   Clear
7:55 PM 82.4 °F 86.3 °F 69.8 °F 66% 30.26 in 5.0 mi Calm Calm - N/A   Haze
8:15 PM 80.6 °F 84.6 °F 71.6 °F 74% 30.26 in 10.0 mi Calm Calm - N/A   Clear
8:35 PM 78.8 °F - 71.6 °F 78% 30.26 in 10.0 mi Calm Calm - N/A   Clear
8:55 PM 77.0 °F - 71.6 °F 83% 30.27 in 10.0 mi Calm Calm - N/A   Clear
9:15 PM 75.2 °F - 71.6 °F 89% 30.28 in 10.0 mi Calm Calm - N/A   Clear
9:35 PM 75.2 °F - 71.6 °F 89% 30.29 in 10.0 mi Calm Calm - N/A   Clear
9:55 PM 73.4 °F - 71.6 °F 94% 30.29 in 10.0 mi Calm Calm - N/A   Clear
10:15 PM 73.4 °F - 71.6 °F 94% 30.29 in 10.0 mi Calm Calm - N/A   Clear
10:35 PM 73.4 °F - 71.6 °F 94% 30.30 in 10.0 mi Calm Calm - N/A   Clear
10:55 PM 73.4 °F - 71.6 °F 94% 30.30 in 10.0 mi Calm Calm - N/A   Clear
11:15 PM 73.4 °F - 71.6 °F 94% 30.29 in 10.0 mi Calm Calm - N/A   Clear
11:35 PM 73.4 °F - 71.6 °F 94% 30.29 in 10.0 mi Calm Calm - N/A   Clear
11:55 PM 73.4 °F - 71.6 °F 94% 30.30 in 10.0 mi Calm Calm - N/A   Clear